FW5404 Weather Reports


time (UTC)temp
C
wind
direction
speed
KPH
gust
KPH
rain 1hr
cm
rain 24hr
cm
rain mn
cm
humidity
%
barometer
mb
20260510213004 11 3 1.6 4.8 0.00 0.00 0.00 73 1023.3
20260510212504 11 341 1.6 4.8 0.00 0.00 0.00 73 1023.3
20260510212004 11 351 1.6 4.8 0.00 0.00 0.00 72 1023.3
20260510211505 11 12 3.2 6.4 0.00 0.00 0.00 72 1023.3
20260510210505 11 357 1.6 4.8 0.00 0.00 0.00 71 1023.3
20260510210011 11 2 1.6 4.8 0.00 0.00 0.00 71 1023.3
20260510205504 11 354 3.2 6.4 0.00 0.00 0.00 71 1023.3
20260510205005 12 7 3.2 6.4 0.00 0.00 0.00 71 1023.3
20260510204504 12 10 3.2 4.8 0.00 0.00 0.00 70 1023.3
20260510204004 12 358 3.2 4.8 0.00 0.00 0.00 69 1023.3
20260510202504 12 11 3.2 4.8 0.00 0.00 0.00 65 1023.3
20260510202004 12 6 3.2 6.4 0.00 0.00 0.00 65 1023.3
20260510201004 12 3 3.2 4.8 0.00 0.00 0.00 63 1023.3
20260510200504 13 6 3.2 4.8 0.00 0.00 0.00 63 1023.3
20260510200007 13 356 3.2 4.8 0.00 0.00 0.00 63 1023.3
20260510195004 13 23 1.6 4.8 0.00 0.00 0.00 62 1023.3
20260510194504 13 40 1.6 4.8 0.00 0.00 0.00 62 1023.3
20260510193504 13 29 3.2 4.8 0.00 0.00 0.00 62 1023.3
20260510193005 13 43 4.8 4.8 0.00 0.00 0.00 60 1023.3
20260510192504 13 68 4.8 6.4 0.00 0.00 0.00 60 1023.3
20260510192003 13 61 4.8 6.4 0.00 0.00 0.00 60 1023.3
20260510191504 13 57 3.2 6.4 0.00 0.00 0.00 60 1023.3
20260510190504 13 58 4.8 9.7 0.00 0.00 0.00 61 1023.3
20260510190006 14 68 4.8 8.0 0.00 0.00 0.00 60 1023.3
20260510185503 14 69 6.4 9.7 0.00 0.00 0.00 60 1023.3
20260510185004 14 66 6.4 9.7 0.00 0.00 0.00 59 1023.3
20260510184505 14 66 6.4 9.7 0.00 0.00 0.00 60 1023.3
20260510184006 14 58 4.8 8.0 0.00 0.00 0.00 60 1023.3
20260510183506 14 71 6.4 12.9 0.00 0.00 0.00 60 1023.3
20260510183005 14 94 8.0 12.9 0.00 0.00 0.00 59 1023.3
20260510182505 14 93 8.0 12.9 0.00 0.00 0.00 59 1023.3
20260510182006 14 89 6.4 9.7 0.00 0.00 0.00 60 1023.3
20260510181005 14 82 8.0 12.9 0.00 0.00 0.00 59 1023.3
20260510180505 15 89 11.3 16.1 0.00 0.00 0.00 59 1023.3
20260510180008 15 84 9.7 16.1 0.00 0.00 0.00 59 1023.3
20260510175505 14 71 8.0 11.3 0.00 0.00 0.00 59 1023.3
20260510175005 15 75 9.7 16.1 0.00 0.00 0.00 59 1023.3
20260510174505 15 69 9.7 16.1 0.00 0.00 0.00 59 1023.3
20260510173505 15 72 9.7 14.5 0.00 0.00 0.00 58 1023.3
20260510173006 15 84 9.7 14.5 0.00 0.00 0.00 57 1023.3
20260510172005 15 59 9.7 17.7 0.00 0.00 0.00 57 1023.3
20260510171505 15 85 11.3 19.3 0.00 0.00 0.00 56 1023.3
20260510171006 15 82 9.7 19.3 0.00 0.00 0.00 56 1023.3
20260510165506 16 74 11.3 20.9 0.00 0.00 0.00 55 1023.3
20260510164506 16 57 12.9 17.7 0.00 0.00 0.00 55 1023.3
20260510163505 15 70 14.5 22.5 0.00 0.00 0.00 56 1023.3
20260510163005 15 68 14.5 25.7 0.00 0.00 0.00 56 1023.3
20260510162505 15 60 16.1 25.7 0.00 0.00 0.00 56 1023.3
20260510161505 16 80 12.9 24.1 0.00 0.00 0.00 56 1023.3
20260510161005 16 80 11.3 19.3 0.00 0.00 0.00 56 1023.3
20260510160505 16 80 12.9 19.3 0.00 0.00 0.00 56 1023.3
20260510160007 15 62 12.9 17.7 0.00 0.00 0.00 58 1023.3
20260510155505 15 56 12.9 19.3 0.00 0.00 0.00 59 1023.3
20260510154505 15 49 12.9 19.3 0.00 0.00 0.00 59 1023.3
20260510154005 15 52 9.7 14.5 0.00 0.00 0.00 59 1023.3
20260510153505 15 66 9.7 16.1 0.00 0.00 0.00 59 1023.3
20260510152505 15 75 9.7 20.9 0.00 0.00 0.00 59 1023.3
20260510152005 15 72 11.3 20.9 0.00 0.00 0.00 59 1023.3
20260510151505 15 70 11.3 17.7 0.00 0.00 0.00 59 1024.4
20260510150505 15 65 11.3 20.9 0.00 0.00 0.00 57 1024.4
20260510150007 16 67 11.3 20.9 0.00 0.00 0.00 57 1024.4
20260510145505 16 66 9.7 17.7 0.00 0.00 0.00 57 1024.4
20260510145005 16 61 12.9 20.9 0.00 0.00 0.00 57 1024.4
20260510143505 16 72 14.5 24.1 0.00 0.00 0.00 56 1024.4
20260510143005 16 64 16.1 24.1 0.00 0.00 0.00 55 1024.4
20260510142504 17 51 16.1 20.9 0.00 0.00 0.00 55 1024.4
20260510142006 17 60 14.5 20.9 0.00 0.00 0.00 55 1024.4
20260510141506 17 70 12.9 20.9 0.00 0.00 0.00 54 1024.4
20260510141005 17 82 12.9 20.9 0.00 0.00 0.00 53 1024.4
20260510140505 17 73 12.9 17.7 0.00 0.00 0.00 53 1024.4
20260510140008 17 65 12.9 20.9 0.00 0.00 0.00 53 1024.4
20260510135505 17 66 12.9 20.9 0.00 0.00 0.00 53 1024.4
20260510134505 16 47 12.9 20.9 0.00 0.00 0.00 56 1024.4
20260510134005 16 62 12.9 20.9 0.00 0.00 0.00 57 1024.4
20260510133505 16 72 11.3 19.3 0.00 0.00 0.00 57 1024.4
20260510133005 16 71 11.3 14.5 0.00 0.00 0.00 57 1024.4
20260510132005 16 76 11.3 17.7 0.00 0.00 0.00 58 1024.4
20260510131505 16 68 14.5 19.3 0.00 0.00 0.00 58 1024.4
20260510130007 16 47 14.5 24.1 0.00 0.00 0.00 58 1024.4
20260510125005 16 69 17.7 24.1 0.00 0.00 0.00 56 1024.4
20260510124505 16 57 17.7 24.1 0.00 0.00 0.00 55 1024.4
20260510124005 17 44 16.1 20.9 0.00 0.00 0.00 56 1024.4
20260510123005 17 84 16.1 20.9 0.00 0.00 0.00 53 1024.4
20260510122504 18 100 16.1 20.9 0.00 0.00 0.00 51 1024.4
20260510122005 18 74 14.5 20.9 0.00 0.00 0.00 50 1024.4
20260510121505 19 63 14.5 22.5 0.00 0.00 0.00 49 1024.4
20260510121006 19 71 16.1 22.5 0.00 0.00 0.00 50 1024.4
20260510120504 19 90 9.7 9.7 0.00 0.00 0.00 49 1024.4
20260510120007 18 22 17.7 17.7 0.00 0.00 0.00 50 1024.4
20260510115005 18 22 17.7 17.7 0.00 0.00 0.00 52 1024.4
20260510114505 18 32 19.3 25.7 0.00 0.00 0.00 49 1024.4
20260510113505 19 56 20.9 25.7 0.00 0.00 0.00 48 1024.4
20260510113006 19 66 19.3 27.4 0.00 0.00 0.00 48 1024.4
20260510112505 18 76 19.3 27.4 0.00 0.00 0.00 50 1024.4
20260510112006 18 83 20.9 30.6 0.00 0.00 0.00 50 1024.4
20260510111505 18 72 25.7 30.6 0.00 0.00 0.00 51 1024.4
20260510111006 18 45 20.9 20.9 0.00 0.00 0.00 50 1024.4
20260510110505 18 66 24.1 32.2 0.00 0.00 0.00 50 1024.4
20260510110007 18 73 22.5 32.2 0.00 0.00 0.00 49 1024.4
20260510104505 18 65 19.3 22.5 0.00 0.00 0.00 52 1024.4
20260510104005 18 83 14.5 17.7 0.00 0.00 0.00 51 1024.4
20260510103505 18 83 14.5 17.7 0.00 0.00 0.00 51 1024.4
20260510102505 17 158 9.7 9.7 0.00 0.00 0.00 53 1024.4
20260510102004 17 158 9.7 9.7 0.00 0.00 0.00 53 1024.4
20260510101505 17 45 9.7 9.7 0.00 0.00 0.00 53 1024.4
20260510101005 17 45 9.7 9.7 0.00 0.00 0.00 54 1024.4
20260510100008 16 45 9.7 9.7 0.00 0.00 0.00 56 1024.4
20260510095505 16 64 12.9 22.5 0.00 0.00 0.00 57 1024.4
20260510094005 16 99 14.5 17.7 0.00 0.00 0.00 57 1024.4
20260510093005 16 68 22.5 22.5 0.00 0.00 0.00 56 1024.4
20260510092505 16 68 22.5 22.5 0.00 0.00 0.00 55 1024.4
20260510092005 16 68 22.5 22.5 0.00 0.00 0.00 55 1024.4
20260510091505 16 47 19.3 22.5 0.00 0.00 0.00 54 1024.4
20260510090504 16 60 20.9 29.0 0.00 0.00 0.00 54 1024.4
20260510085504 16 91 20.9 29.0 0.00 0.00 0.00 54 1024.4
20260510085005 16 108 24.1 33.8 0.00 0.00 0.00 55 1024.4
20260510084504 16 100 24.1 33.8 0.00 0.00 0.00 55 1024.4
20260510084004 16 68 17.7 27.4 0.00 0.00 0.00 56 1024.4
20260510083004 15 86 16.1 22.5 0.00 0.00 0.00 59 1024.4
20260510082505 15 90 12.9 22.5 0.00 0.00 0.00 58 1024.4
20260510082005 15 99 11.3 14.5 0.00 0.00 0.00 58 1024.4
20260510081504 15 90 11.3 11.3 0.00 0.00 0.00 57 1025.4
20260510081005 15 99 12.9 17.7 0.00 0.00 0.00 58 1025.4
20260510080505 16 107 16.1 17.7 0.00 0.00 0.00 56 1025.4
20260510075504 16 107 19.3 20.9 0.00 0.00 0.00 56 1025.4
20260510074505 15 73 24.1 30.6 0.00 0.00 0.00 58 1025.4
20260510073004 14 97 20.9 25.7 0.00 0.00 0.00 61 1024.4
20260510072504 15 112 25.7 25.7 0.00 0.00 0.00 58 1024.4
20260510071005 15 90 16.1 17.7 0.00 0.00 0.00 58 1024.4
20260510070504 15 79 17.7 22.5 0.00 0.00 0.00 59 1024.4
20260510070006 15 76 17.7 22.5 0.00 0.00 0.00 59 1024.4
20260510065504 15 48 14.5 22.5 0.00 0.00 0.00 59 1024.4
20260510065004 15 59 14.5 19.3 0.00 0.00 0.00 60 1024.4
20260510064505 15 90 16.1 19.3 0.00 0.00 0.00 60 1024.4
20260510064005 15 86 14.5 19.3 0.00 0.00 0.00 60 1024.4
20260510063505 14 53 11.3 12.9 0.00 0.00 0.00 59 1024.4
20260510063005 15 57 11.3 12.9 0.00 0.00 0.00 59 1024.4
20260510062504 15 68 9.7 9.7 0.00 0.00 0.00 59 1024.4
20260510062004 14 80 11.3 14.5 0.00 0.00 0.00 59 1024.4
20260510061004 14 81 11.3 14.5 0.00 0.00 0.00 60 1024.4
20260510060505 14 68 11.3 11.3 0.00 0.00 0.00 61 1024.4
20260510060006 13 68 14.5 14.5 0.00 0.00 0.00 63 1024.4
20260510055505 13 68 14.5 14.5 0.00 0.00 0.00 66 1024.4
20260510054504 10 68 14.5 14.5 0.00 0.00 0.00 76 1024.4
20260510054004 10 68 14.5 14.5 0.00 0.00 0.00 76 1024.4
20260510053505 10 68 14.5 14.5 0.00 0.00 0.00 76 1024.4
20260510053004 10 68 14.5 14.5 0.00 0.00 0.00 77 1024.4
20260510052504 10 68 14.5 14.5 0.00 0.00 0.00 77 1024.4
20260510052004 10 68 14.5 14.5 0.00 0.00 0.00 78 1024.4
20260510051504 10 68 14.5 14.5 0.00 0.00 0.00 78 1024.4
20260510051005 10 68 14.5 14.5 0.00 0.00 0.00 78 1024.4
20260510050505 11 68 14.5 14.5 0.00 0.00 0.00 79 1024.4
20260510050007 10 68 14.5 14.5 0.00 0.00 0.00 79 1024.4
20260510045005 11 78 14.5 14.5 0.00 0.00 0.00 80 1024.4
20260510044505 11 89 14.5 14.5 0.00 0.00 0.00 80 1024.4
20260510044004 11 68 12.9 12.9 0.00 0.00 0.00 80 1024.4
20260510043506 11 68 12.9 12.9 0.00 0.00 0.00 80 1024.4
20260510042504 11 68 12.9 12.9 0.00 0.00 0.00 80 1024.4
20260510042005 11 87 11.3 14.5 0.00 0.00 0.00 80 1024.4
20260510041504 11 95 11.3 14.5 0.00 0.00 0.00 80 1024.4
20260510041005 11 99 9.7 11.3 0.00 0.00 0.00 79 1024.4
20260510040506 11 86 11.3 14.5 0.00 0.00 0.00 79 1024.4
20260510040006 11 80 11.3 14.5 0.00 0.00 0.00 79 1024.4
20260510035504 11 69 11.3 20.9 0.00 0.00 0.00 79 1024.4
20260510035004 11 66 11.3 20.9 0.00 0.00 0.00 79 1024.4
20260510034504 11 88 12.9 17.7 0.00 0.00 0.00 79 1024.4
20260510034004 11 98 14.5 17.7 0.00 0.00 0.00 78 1024.4
20260510033504 11 94 14.5 17.7 0.00 0.00 0.00 78 1024.4
20260510033005 12 103 9.7 11.3 0.00 0.00 0.00 78 1024.4
20260510032505 12 103 9.7 11.3 0.00 0.00 0.00 78 1024.4
20260510032004 12 100 8.0 11.3 0.00 0.00 0.00 78 1024.4
20260510031504 12 68 4.8 4.8 0.00 0.00 0.00 77 1024.4
20260510031004 12 55 6.4 9.7 0.00 0.00 0.00 78 1024.4
20260510025504 12 158 1.6 1.6 0.00 0.00 0.00 78 1024.4
20260510025004 12 68 1.6 1.6 0.00 0.00 0.00 78 1024.4
20260510024504 12 68 1.6 1.6 0.00 0.00 0.00 78 1024.4
20260510024005 12 68 3.2 4.8 0.00 0.00 0.00 78 1024.4
20260510023504 12 72 4.8 4.8 0.00 0.00 0.00 78 1024.4
20260510023005 12 61 4.8 4.8 0.00 0.00 0.00 78 1024.4
20260510022505 12 54 3.2 4.8 0.00 0.00 0.00 79 1024.4
20260510022004 12 47 3.2 4.8 0.00 0.00 0.00 79 1024.4
20260510021504 12 47 3.2 4.8 0.00 0.00 0.00 79 1024.4
20260510021004 12 74 6.4 8.0 0.00 0.00 0.00 79 1024.4
20260510020504 12 53 6.4 12.9 0.00 0.00 0.00 80 1024.4
20260510020006 12 53 6.4 12.9 0.00 0.00 0.00 80 1024.4
20260510015504 13 34 8.0 12.9 0.00 0.00 0.00 81 1024.4
20260510015004 13 49 8.0 12.9 0.00 0.00 0.00 81 1024.4
20260510014504 13 68 6.4 8.0 0.00 0.00 0.00 81 1024.4
20260510014004 13 50 8.0 11.3 0.00 0.00 0.00 81 1024.4
20260510012505 13 93 12.9 14.5 0.00 0.00 0.00 82 1024.4
20260510012004 13 86 9.7 14.5 0.00 0.00 0.00 82 1024.4
20260510011504 13 81 9.7 14.5 0.00 0.00 0.00 81 1024.4
20260510011004 13 77 12.9 16.1 0.00 0.00 0.00 81 1024.4
20260510010504 13 72 14.5 16.1 0.00 0.00 0.00 81 1024.4
20260510010006 13 67 12.9 17.7 0.00 0.00 0.00 81 1024.4
20260510005504 13 72 11.3 17.7 0.00 0.00 0.00 80 1024.4
20260510005004 13 97 8.0 17.7 0.00 0.00 0.00 80 1024.4
20260510004504 13 112 11.3 16.1 0.00 0.00 0.00 80 1024.4
20260510004004 13 96 12.9 16.1 0.00 0.00 0.00 80 1024.4
20260510003505 13 83 12.9 16.1 0.00 0.00 0.00 80 1024.4
20260510003005 13 68 11.3 14.5 0.00 0.00 0.00 80 1024.4
20260510002504 13 77 11.3 14.5 0.00 0.00 0.00 80 1024.4
20260510002004 13 78 11.3 14.5 0.00 0.00 0.00 80 1024.4
20260510001504 13 112 8.0 8.0 0.00 0.00 0.00 79 1024.4
20260510001004 14 111 6.4 6.4 0.00 0.00 0.00 79 1024.4
20260510000505 13 111 6.4 6.4 0.00 0.00 0.00 79 1024.4
20260510000006 13 111 6.4 6.4 0.00 0.00 0.00 79 1025.4
20260509235504 13 111 6.4 6.4 0.00 0.00 0.00 80 1025.4
20260509235004 13 111 6.4 6.4 0.00 0.00 0.00 80 1025.4
20260509234004 14 94 8.0 16.1 0.00 0.00 0.00 80 1025.4
20260509233504 14 68 12.9 16.1 0.00 0.00 0.00 80 1025.4
20260509233004 14 68 9.7 12.9 0.00 0.00 0.00 80 1025.4
20260509232504 14 68 9.7 12.9 0.00 0.00 0.00 81 1025.4
20260509232005 14 68 8.0 8.0 0.00 0.00 0.00 81 1025.4
20260509231004 14 68 9.7 9.7 0.00 0.00 0.00 80 1025.4
20260509230504 14 68 9.7 9.7 0.00 0.00 0.00 81 1025.4
20260509230010 14 68 9.7 9.7 0.00 0.00 0.00 81 1025.4
20260509225504 14 68 9.7 9.7 0.00 0.00 0.00 81 1025.4
20260509225004 14 1 6.4 6.4 0.00 0.00 0.00 81 1025.4
20260509224504 14 1 6.4 6.4 0.00 0.00 0.00 81 1025.4
20260509224005 14 1 6.4 6.4 0.00 0.00 0.00 81 1025.4
20260509223505 14 1 6.4 6.4 0.00 0.00 0.00 82 1025.4
20260509223004 14 1 6.4 6.4 0.00 0.00 0.00 82 1025.4
20260509222506 14 1 6.4 6.4 0.00 0.00 0.00 82 1025.4
20260509222006 14 1 6.4 6.4 0.00 0.00 0.00 82 1025.4
20260509221504 14 1 6.4 6.4 0.00 0.00 0.00 82 1025.4
20260509221004 14 1 6.4 6.4 0.00 0.00 0.00 82 1025.4
20260509220504 14 1 6.4 6.4 0.00 0.00 0.00 81 1025.4
20260509220006 14 1 6.4 6.4 0.00 0.00 0.00 81 1025.4
20260509215504 14 1 6.4 6.4 0.00 0.00 0.00 81 1025.4
20260509215004 14 1 6.4 6.4 0.00 0.00 0.00 81 1025.4
20260509214505 14 1 6.4 6.4 0.00 0.00 0.00 80 1025.4
20260509214005 14 1 6.4 6.4 0.00 0.00 0.00 80 1025.4